Flag for Germany Weather past 2 weeks in Freital, Saxony, Germany

Now
40 °F

Overcast.


Feels Like: 36 °F
Forecast: 44 / 53 °F
Wind: 6 mph from Northwest

Location: Dresden-Klotzsche

Current Time: Mar 28, 2015 at 6:26:22 AM

Latest Report: Mar 28, 2015 at 6:00 AM


Visibility: 9 mi

Pressure: 30.17 "Hg

Humidity: 82%

Dew point: 35 °F

Location of FreitalLocation

Historic Weather in Freital — Graph

°F

Freital temperature yesterday

Maximum temperature yesterday: 49 °F (at 2:00 PM)
Minimum temperature yesterday: 41 °F (at 7:00 AM)
Average temperature yesterday: 44 °F

Past Weeks' High & Low Weather Summary

 TemperatureHumidityPressure
High64 °F (Mar 25, 3:00 PM)100% (Mar 13, 7:00 AM)30.43 "Hg (Mar 13, 7:00 AM)
Low26 °F (Mar 23, 3:00 AM)26% (Mar 19, 4:00 PM)29.62 "Hg (Mar 26, 2:00 AM)
Average43 °F72%30.15 "Hg
* Reported Mar 13 5:00 AM — Mar 28 5:00 AM, Freital, Weather by CustomWeather, © 2015

Note: Actual official high and low records may vary slightly from our data, if they occured in-between our weather recording intervals... More about our weather records

Advertising

Freital weather history for previous 24 hours

 ConditionsComfort  
Time TempWeatherWind HumidityBarometerVisibility
5:00 AM
Sat, Mar 28
40 °FOvercast.7 mph83%30.16 "Hg11 mi
3:00 AM41 °FOvercast.7 mph84%30.15 "Hg14 mi
2:00 AM41 °FOvercast.8 mph86%30.14 "Hg11 mi
1:00 AM42 °FRain. Overcast.7 mph86%30.13 "Hg10 mi
12:00 AM42 °FRain. Low clouds.9 mph83%30.13 "Hg11 mi
11:00 PM
Fri, Mar 27
43 °FRain. Low clouds.6 mph81%30.11 "Hg11 mi
9:00 PM43 °FLight rain. Overcast.7 mph79%30.09 "Hg16 mi
8:00 PM44 °FOvercast.7 mph72%30.07 "Hg19 mi
7:00 PM45 °FOvercast.5 mph76%30.05 "Hg19 mi
6:00 PM44 °FOvercast.7 mph77%30.03 "Hg19 mi
5:00 PM46 °FOvercast.8 mph70%30.00 "Hg19 mi
3:00 PM46 °FPartly sunny.6 mph79%29.97 "Hg17 mi
2:00 PM49 °FPartly sunny.6 mph59%29.94 "Hg17 mi
1:00 PM49 °FPartly sunny.7 mph57%29.94 "Hg17 mi
12:00 PM46 °FPartly sunny.7 mph73%29.94 "Hg16 mi
11:00 AM46 °FOvercast.6 mph76%29.94 "Hg14 mi
9:00 AM43 °FOvercast.6 mph86%29.91 "Hg8 mi
8:00 AM42 °FQuite cool.3 mph89%29.90 "HgN/A
7:00 AM41 °FLight rain. Overcast.5 mph89%29.88 "Hg7 mi
6:00 AM42 °FOvercast.3 mph89%29.86 "Hg6 mi
Weather by CustomWeather, © 2015

See weather overviewHow to use our weather pages